Location: Home
(42.5358°N, 72.7383°W)
Time: 08:09:36
(UTC-05:00)

Envisat - Pass Details

Date: 23 October 2021
Orbit: 764 x 766 km, 98.2° (Epoch: 07 December)

Event Time Altitude Azimuth Distance (km) Brightness Sun altitude
Rises 05:55:59 0° 14° (NNE) 3,242 6.4 -15.0°
Reaches altitude 10° 05:58:18 10° 15° (NNE) 2,311 5.6 -14.6°
Maximum altitude 06:03:24 81° 103° (ESE) 780 3.1 -13.6°
Drops below altitude 10° 06:08:28 10° 191° (S) 2,293 5.4 -12.7°
Sets 06:10:46 0° 192° (SSW) 3,215 6.1 -12.3°
